Simultaneous Nadir Overpasses (SNOs) Predictions

Prediction of SNOs between NOAA-20 and AQUA Satellite Orbit:

Table of predicted SNOs for the next 14.0 days since TLE Epoch: 12/19/2020
Index Date (NOAA-20) Time (NOAA-20) Lat,Lon (NOAA-20) SZA (NOAA-20 ) Date (AQUA) Time (AQUA) Lat,Lon (AQUA) SZA (AQUA ) Distance(km) Time Diff (sec)
1 12/19/2020 22:13:08 -75.64, -95.46 59.68 12/19/2020 22:13:25 -75.65, -95.38 59.72 2.41 17
2 12/19/2020 23:03:30 76.65, 75.39 119.16 12/19/2020 23:02:30 76.66, 75.48 119.19 2.34 60
3 12/22/2020 13:39:29 75.12,-148.58 120.98 12/22/2020 13:40:38 75.11,-148.62 120.92 1.22 69
4 12/22/2020 14:29:50 -76.27, 22.45 60.33 12/22/2020 14:29:42 -76.27, 22.41 60.31 1.23 8
5 12/25/2020 05:56:19 75.39, -32.00 120.70 12/25/2020 05:57:02 75.39, -31.99 120.66 0.40 43
6 12/25/2020 06:46:41 -76.44, 138.84 60.51 12/25/2020 06:46:07 -76.44, 138.86 60.48 0.54 34
7 12/27/2020 22:13:07 75.70, 84.75 120.32 12/27/2020 22:13:24 75.71, 84.80 120.29 1.50 17
8 12/27/2020 23:03:32 -76.65,-104.60 60.80 12/27/2020 23:02:32 -76.66,-104.54 60.76 1.79 60
9 12/30/2020 13:39:29 -75.22, 31.71 59.23 12/30/2020 13:40:38 -75.21, 31.62 59.27 2.63 69
10 12/30/2020 14:29:56 76.01,-158.47 119.88 12/30/2020 14:29:47 76.02,-158.40 119.87 2.09 9



Historial Predications of SNOs between NOAA-20 and AQUA
